Cosmos 2227 Rocket - Orbit

View from above orbital plane
View from above orbital plane
View from above satellite
View from above satellite

Ground track
Ground track

The orbit data is extracted from the following two-line orbital elements,

1 22285U 92093B   13140.18631232 -.00000031  00000-0  86319-5 0   388
2 22285 071.0230 095.5612 0006213 251.0848 108.9601 14.14856268 51918
Epoch (UTC): 20 May 2013 04:28:17
Eccentricity: 0.0006213
inclination: 71.0230°
perigee height: 838 km
apogee height: 847 km
right ascension of ascending node: 95.5612°
argument of perigee: 251.0848°
revolutions per day: 14.14856268
mean anomaly at epoch: 108.9601°
orbit number at epoch: 5191

The dashed part of the orbit path shows where the satellite is in the earth's shadow,  

Developed and maintained by Chris Peat, Heavens-Above GmbH. Please read the updated FAQ before sending e-mail. Imprint. DLR